GFSNE_prec_kuchsnow_270.txt.gz
Snowfall_Accumulation
0.0 0.1 0.0 0.0 0.0 0.1 0.1 0.3 3.2 4.4 0.4 0.0 0.0 0.0 0.0 0.0 0.0 0.0 0.0 0.0 0.0 0.0 0.0 0.0 0.0 0.0 0.0 0.0 0.0 0.0 0.0 0.0 0.0 0.0 0.0 0.0 0.0 0.0
0.0 0.0 0.0 0.0 0.0 0.0 0.0 0.1 0.4 1.4 1.4 0.0 0.0 0.0 0.0 0.0 0.0 0.0 0.0 0.0 0.0 0.0 0.0 0.0 0.0 0.0 0.0 0.0 0.0 0.0 0.0 0.0 0.0 0.0 0.0 0.0 0.0 0.0
0.2 0.3 0.2 0.0 0.1 0.0 0.0 0.1 0.1 0.3 0.5 0.0 0.0 0.0 0.0 0.0 0.0 0.0 0.0 0.0 0.0 0.0 0.0 0.0 0.0 0.0 0.0 0.0 0.0 0.0 0.0 0.0 0.0 0.0 0.0 0.0 0.0 0.0
0.5 0.9 1.5 0.8 1.1 0.3 0.2 0.1 0.2 0.2 0.4 0.1 0.4 0.2 0.0 0.0 0.0 0.0 0.0 0.0 0.0 0.0 0.0 0.0 0.1 0.0 0.0 0.0 0.0 0.0 0.1 0.0 0.0 0.0 0.0 0.0 0.0 0.0
3.7 2.5 2.4 1.8 3.6 3.1 2.0 1.1 0.3 0.6 0.9 0.2 0.2 0.0 0.5 0.2 0.1 0.4 0.2 0.1 0.0 0.0 0.0 0.0 0.0 0.0 0.0 0.0 0.0 0.0 0.0 0.1 0.0 0.1 0.1 0.0 0.0 0.0
2.3 2.6 2.9 1.8 4.5 4.7 4.6 5.3 4.0 2.4 1.6 1.6 0.5 0.7 0.8 0.9 1.1 1.1 0.7 0.6 0.4 0.2 0.1 0.0 0.1 0.0 0.0 0.0 0.1 0.0 0.0 0.0 0.1 0.1 0.1 0.1 0.0 0.0
0.4 0.4 0.6 0.4 1.0 2.1 3.4 4.6 3.1 5.4 4.9 3.9 2.4 1.0 2.1 1.1 2.9 3.8 2.6 2.2 1.0 1.5 0.4 0.4 0.0 0.0 0.4 0.2 0.0 0.1 0.0 0.1 0.1 0.1 0.1 0.1 0.0 0.0
5.7 3.4 1.7 0.3 2.0 0.5 0.6 1.9 3.3 5.8 5.9 5.5 6.4 6.4 4.9 4.0 2.6 5.7 6.2 4.4 8.1 4.1 3.9 2.3 0.4 0.6 0.5 1.1 0.6 0.3 0.1 0.2 0.2 0.1 0.1 0.0 0.0 0.2
7.2 7.9 6.2 6.2 4.0 2.5 2.9 1.7 1.5 1.3 4.2 5.3 5.3 6.0 7.6 7.5 6.6 4.6 5.8 9.5 9.0 4.6 4.4 8.5 3.4 2.4 1.6 1.3 1.5 0.3 0.6 0.1 0.2 0.2 0.3 0.1 0.0 0.0
4.8 3.2 1.9 1.8 3.3 2.4 4.3 4.3 2.6 2.7 3.4 5.6 8.4 8.4 9.0 9.5 7.8 8.3 5.8 5.9 10.5 10.2 5.7 11.2 9.5 13.3 8.3 8.7 2.1 1.5 1.9 0.6 0.9 1.0 0.3 0.3 0.3 0.0
2.6 2.2 1.0 1.0 0.8 1.3 1.1 1.0 1.0 1.3 1.0 1.8 3.0 3.1 4.6 3.4 5.5 8.0 16.3 17.3 17.7 13.4 8.9 11.4 11.8 14.0 13.1 9.6 10.4 5.3 5.5 5.9 6.1 2.1 2.3 2.5 2.6 2.6
3.1 2.2 2.0 1.0 1.8 1.8 2.5 2.0 2.2 1.4 1.5 1.5 1.4 0.7 1.6 1.4 1.4 1.9 4.8 11.2 13.5 16.3 12.6 15.4 14.0 15.3 24.7 20.5 17.7 13.3 11.9 12.1 10.7 9.0 6.1 5.4 4.0 3.5
2.9 3.5 2.9 5.2 4.6 2.8 1.4 1.6 2.2 1.9 1.7 1.0 1.0 1.9 1.3 1.4 1.4 0.5 1.6 3.6 7.7 6.7 7.2 14.6 21.8 20.2 26.1 23.9 17.0 14.0 11.3 12.5 13.0 9.1 6.9 6.2 4.7 3.9
11.3 8.7 8.8 6.5 6.9 4.8 5.2 5.9 4.3 5.6 5.2 3.7 5.0 6.9 10.5 7.7 9.4 7.2 8.6 9.0 8.8 11.1 12.3 11.6 18.2 15.7 16.9 17.1 14.3 10.9 9.4 8.3 7.5 9.3 11.3 7.0 6.6 9.3
13.3 12.1 13.6 11.2 11.8 11.6 13.6 13.4 12.5 13.1 14.0 17.5 24.8 24.7 23.4 21.4 19.8 16.8 14.3 13.1 13.6 10.6 11.9 12.0 11.1 11.8 11.9 14.3 11.9 9.7 12.1 9.2 6.2 5.9 8.0 9.1 10.3 10.0
9.3 8.8 10.4 12.8 10.3 13.8 16.1 13.1 16.1 25.0 27.6 30.6 29.9 30.8 27.5 25.8 24.6 21.0 20.4 20.2 20.6 20.1 16.6 14.5 13.8 15.3 18.9 16.7 15.8 15.7 12.8 13.6 10.0 9.6 10.9 12.6 13.5 12.6
10.3 17.6 24.7 20.2 21.6 22.7 23.9 24.2 24.1 24.5 26.2 25.2 24.8 23.7 22.4 20.7 19.6 15.9 15.0 13.7 16.0 13.5 13.8 14.3 12.1 11.4 10.5 12.2 16.5 13.7 13.3 12.6 11.0 12.8 11.8 15.3 14.3 13.3
20.5 23.1 23.9 23.1 21.2 20.7 20.8 20.3 18.7 17.3 15.7 14.1 13.7 12.7 13.2 12.1 10.4 8.3 7.7 9.0 9.1 7.5 7.0 7.2 8.8 10.6 11.0 9.3 7.0 10.3 9.2 8.7 8.5 8.2 8.4 12.9 14.2 15.0
17.0 14.0 16.3 15.7 13.9 11.8 10.7 10.0 12.2 10.7 6.9 8.0 8.0 6.9 5.1 5.1 6.3 5.0 4.5 3.9 5.0 4.0 3.2 4.1 5.2 6.9 9.3 9.5 6.2 4.1 7.0 5.4 5.9 6.7 5.2 6.6 10.6 10.7
9.7 8.8 9.3 8.0 7.2 6.9 6.5 6.5 7.3 6.2 5.9 4.2 4.3 3.9 4.3 4.6 4.4 3.9 3.5 4.5 3.6 3.3 3.1 2.1 1.6 2.6 7.1 10.8 9.8 3.7 3.0 7.8 4.9 4.4 4.6 5.5 5.0 6.1
7.2 6.6 6.0 6.0 6.9 6.6 5.9 5.5 7.0 7.4 4.8 7.8 5.9 7.0 7.6 7.8 6.0 3.9 5.5 5.3 6.0 5.1 4.6 1.9 0.3 1.3 3.1 5.1 9.9 4.6 2.8 2.2 2.1 2.4 4.3 6.4 5.2 6.4
6.9 6.6 5.1 5.6 4.8 5.0 5.9 5.6 5.7 6.3 7.0 7.1 5.6 4.7 5.4 5.0 5.6 3.9 4.1 4.6 3.6 3.2 1.9 1.6 1.8 2.9 4.3 4.3 5.2 4.4 2.5 4.7 2.7 1.7 2.5 4.1 8.8 12.4
6.3 5.2 5.3 4.9 4.2 4.4 4.7 5.1 4.5 4.1 4.7 6.2 4.8 4.2 5.0 5.8 4.2 4.2 4.0 3.7 4.1 3.8 3.7 5.1 3.8 3.0 2.9 2.8 4.6 5.9 3.5 5.0 4.3 6.2 6.1 3.5 3.6 2.4

GFSNE_prec_kuchsnow_276.txt.gz
Snowfall_Accumulation
0.0 0.1 0.0 0.0 0.0 0.1 0.1 0.3 3.2 4.4 0.4 0.0 0.0 0.0 0.0 0.0 0.0 0.0 0.0 0.0 0.0 0.0 0.0 0.0 0.0 0.0 0.0 0.0 0.0 0.0 0.0 0.0 0.0 0.0 0.0 0.0 0.0 0.0
0.0 0.0 0.0 0.0 0.0 0.0 0.0 0.1 0.4 1.4 1.4 0.0 0.0 0.0 0.0 0.0 0.0 0.0 0.0 0.0 0.0 0.0 0.0 0.0 0.0 0.0 0.0 0.0 0.0 0.0 0.0 0.0 0.0 0.0 0.0 0.0 0.0 0.0
0.2 0.3 0.2 0.0 0.1 0.0 0.0 0.1 0.1 0.3 0.5 0.0 0.0 0.0 0.0 0.0 0.0 0.0 0.0 0.0 0.0 0.0 0.0 0.0 0.0 0.0 0.0 0.0 0.0 0.0 0.0 0.0 0.0 0.0 0.0 0.0 0.0 0.0
0.5 0.9 1.5 0.8 1.1 0.3 0.2 0.1 0.2 0.2 0.4 0.1 0.4 0.2 0.0 0.0 0.0 0.0 0.0 0.0 0.0 0.0 0.0 0.0 0.1 0.0 0.0 0.0 0.0 0.0 0.1 0.0 0.0 0.0 0.0 0.0 0.0 0.0
3.7 2.5 2.4 1.8 3.6 3.1 2.0 1.1 0.3 0.6 0.9 0.2 0.2 0.0 0.5 0.2 0.1 0.4 0.2 0.1 0.0 0.0 0.0 0.0 0.0 0.0 0.0 0.0 0.0 0.0 0.0 0.1 0.0 0.1 0.1 0.0 0.0 0.0
2.3 2.6 2.9 1.8 4.5 4.7 4.6 5.3 4.0 2.4 1.6 1.6 0.5 0.7 0.8 0.9 1.1 1.1 0.7 0.6 0.4 0.2 0.1 0.0 0.1 0.0 0.0 0.0 0.1 0.0 0.0 0.0 0.1 0.1 0.1 0.1 0.0 0.0
0.4 0.4 0.6 0.4 1.0 2.1 3.4 4.6 3.1 5.4 4.9 3.9 2.4 1.0 2.1 1.1 2.9 3.8 2.6 2.2 1.0 1.5 0.4 0.4 0.0 0.0 0.4 0.2 0.0 0.1 0.0 0.1 0.1 0.1 0.1 0.1 0.0 0.0
5.7 3.4 1.7 0.3 2.0 0.5 0.6 1.9 3.3 5.8 5.9 5.5 6.4 6.4 4.9 4.0 2.6 5.7 6.2 4.4 8.1 4.1 3.9 2.3 0.4 0.6 0.5 1.1 0.6 0.3 0.1 0.2 0.2 0.1 0.1 0.0 0.0 0.2
7.2 7.9 6.2 6.2 4.1 2.5 2.9 1.7 1.5 1.3 4.2 5.3 5.3 6.0 7.6 7.5 6.6 4.6 5.8 9.5 9.0 4.6 4.4 8.5 3.4 2.4 1.6 1.3 1.5 0.3 0.6 0.1 0.2 0.2 0.3 0.1 0.0 0.0
4.8 3.2 1.9 1.8 3.3 2.4 4.3 4.3 2.6 2.7 3.4 5.6 8.4 8.4 9.0 9.5 7.8 8.3 5.8 5.9 10.5 10.2 5.7 11.2 9.5 13.3 8.3 8.7 2.1 1.5 1.9 0.6 0.9 1.0 0.3 0.3 0.3 0.0
2.6 2.2 1.0 1.0 0.9 1.3 1.1 1.0 1.0 1.3 1.0 1.8 3.0 3.1 4.6 3.4 5.5 8.0 16.3 17.3 17.7 13.4 8.9 11.4 11.8 14.0 13.1 9.6 10.4 5.3 5.5 5.9 6.1 2.1 2.3 2.5 2.6 2.6
3.1 2.3 2.1 1.2 1.8 1.8 2.5 2.0 2.2 1.4 1.5 1.5 1.4 0.7 1.6 1.4 1.4 1.9 4.8 11.2 13.5 16.3 12.6 15.4 14.0 15.3 24.7 20.5 17.7 13.3 11.9 12.1 10.7 9.0 6.1 5.4 4.0 3.5
2.9 3.5 2.9 5.4 4.7 2.8 1.5 1.6 2.3 1.9 1.7 1.0 1.0 1.9 1.3 1.4 1.4 0.5 1.6 3.6 7.7 6.7 7.2 14.6 21.8 20.2 26.1 23.9 17.0 14.0 11.3 12.5 13.0 9.1 6.9 6.2 4.7 3.9
11.6 8.9 8.9 6.6 6.9 4.8 5.2 6.2 4.5 5.6 5.2 3.7 5.0 6.9 10.5 7.7 9.4 7.2 8.6 9.0 8.8 11.1 12.3 11.6 18.2 15.7 16.9 17.1 14.3 10.9 9.4 8.3 7.5 9.3 11.3 7.0 6.6 9.3
13.3 12.1 13.6 11.2 11.8 11.6 13.6 13.6 12.7 13.2 14.1 17.5 24.8 24.7 23.4 21.4 19.8 16.8 14.3 13.1 13.6 10.6 11.9 12.0 11.1 11.8 11.9 14.3 11.9 9.7 12.1 9.2 6.2 5.9 8.0 9.1 10.3 10.0
9.3 8.8 10.4 12.8 10.3 13.8 16.1 13.3 16.3 25.2 28.0 31.2 30.5 30.9 27.5 25.8 24.6 21.0 20.4 20.2 20.6 20.1 16.6 14.5 13.8 15.3 18.9 16.7 15.8 15.7 12.8 13.6 10.0 9.6 10.9 12.6 13.5 12.6
10.3 17.6 24.7 20.2 21.6 22.7 23.9 24.4 24.3 24.7 26.4 25.4 25.1 24.2 22.8 20.7 19.6 15.9 15.0 13.7 16.0 13.5 13.8 14.3 12.1 11.4 10.5 12.2 16.5 13.7 13.3 12.6 11.0 12.8 11.8 15.3 14.3 13.3
20.5 23.1 23.9 23.2 21.5 21.0 21.1 20.5 18.9 17.5 16.0 14.3 14.0 13.1 14.0 12.8 11.0 8.7 7.8 9.1 9.1 7.5 7.0 7.2 8.8 10.6 11.0 9.3 7.0 10.3 9.2 8.7 8.5 8.2 8.4 12.9 14.2 15.0
17.0 14.1 16.4 16.0 14.3 12.3 11.1 10.4 12.9 11.4 7.1 8.2 8.7 7.8 6.1 5.9 7.1 5.8 5.2 4.5 5.6 4.1 3.2 4.1 5.2 6.9 9.3 9.5 6.2 4.1 7.0 5.4 5.9 6.7 5.2 6.6 10.6 10.7
9.7 9.0 9.5 8.1 7.4 7.4 6.9 7.3 7.7 6.5 6.1 4.5 4.9 4.5 5.1 5.5 5.2 4.7 4.3 5.3 4.4 4.0 3.6 2.3 1.6 2.6 7.1 10.8 9.8 3.7 3.0 7.8 4.9 4.4 4.6 5.5 5.0 6.1
7.2 6.7 6.2 6.0 6.9 7.0 6.1 5.9 7.6 8.3 5.5 8.4 6.5 7.6 8.2 8.4 6.7 4.6 6.1 6.0 6.7 5.6 5.2 2.5 0.8 1.3 3.1 5.1 9.9 4.6 2.8 2.2 2.1 2.4 4.3 6.4 5.2 6.4
7.0 6.6 5.3 5.6 4.8 5.2 5.9 5.6 5.7 6.5 7.3 7.7 6.2 5.3 6.0 5.6 6.4 4.6 4.7 5.0 4.0 3.5 2.3 1.9 1.8 2.9 4.6 4.7 5.7 4.8 2.8 4.7 2.7 1.7 2.5 4.1 8.8 12.4
6.5 5.3 5.5 4.9 4.2 4.5 4.8 5.1 4.5 4.1 4.7 6.5 5.1 4.4 5.5 6.4 4.7 4.7 4.6 4.3 4.6 4.1 3.8 5.1 3.8 3.0 2.9 2.8 4.9 6.1 3.6 5.1 4.3 6.2 6.1 3.5 3.6 2.4

GFSNE_prec_kuchsnow_279.txt.gz
Snowfall_Accumulation
0.0 0.1 0.0 0.0 0.0 0.1 0.1 0.3 3.2 4.4 0.4 0.0 0.0 0.0 0.0 0.0 0.0 0.0 0.0 0.0 0.0 0.0 0.0 0.0 0.0 0.0 0.0 0.0 0.0 0.0 0.0 0.0 0.0 0.0 0.0 0.0 0.0 0.0
0.0 0.0 0.0 0.0 0.0 0.0 0.0 0.1 0.4 1.4 1.4 0.0 0.0 0.0 0.0 0.0 0.0 0.0 0.0 0.0 0.0 0.0 0.0 0.0 0.0 0.0 0.0 0.0 0.0 0.0 0.0 0.0 0.0 0.0 0.0 0.0 0.0 0.0
0.2 0.3 0.2 0.0 0.1 0.0 0.0 0.1 0.1 0.3 0.5 0.0 0.0 0.0 0.0 0.0 0.0 0.0 0.0 0.0 0.0 0.0 0.0 0.0 0.0 0.0 0.0 0.0 0.0 0.0 0.0 0.0 0.0 0.0 0.0 0.0 0.0 0.0
0.6 0.9 1.5 0.8 1.1 0.3 0.2 0.1 0.2 0.2 0.4 0.1 0.4 0.2 0.0 0.0 0.0 0.0 0.0 0.0 0.0 0.0 0.0 0.0 0.1 0.0 0.0 0.0 0.0 0.0 0.1 0.0 0.0 0.0 0.0 0.0 0.0 0.0
3.7 2.5 2.4 1.8 3.6 3.1 2.0 1.1 0.3 0.6 0.9 0.2 0.2 0.0 0.5 0.2 0.1 0.4 0.2 0.1 0.0 0.0 0.0 0.0 0.0 0.0 0.0 0.0 0.0 0.0 0.0 0.1 0.0 0.1 0.1 0.0 0.0 0.0
2.3 2.6 2.9 1.8 4.5 4.7 4.6 5.3 4.0 2.4 1.6 1.6 0.5 0.7 0.8 0.9 1.1 1.1 0.7 0.6 0.4 0.2 0.1 0.0 0.1 0.0 0.0 0.0 0.1 0.0 0.0 0.0 0.1 0.1 0.1 0.1 0.0 0.0
0.4 0.4 0.6 0.4 1.0 2.1 3.4 4.6 3.1 5.4 4.9 3.9 2.4 1.0 2.1 1.1 2.9 3.8 2.6 2.2 1.0 1.5 0.4 0.4 0.0 0.0 0.4 0.2 0.0 0.1 0.0 0.1 0.1 0.1 0.1 0.1 0.0 0.0
5.7 3.4 1.7 0.3 2.0 0.6 0.6 1.9 3.3 5.8 5.9 5.5 6.4 6.4 4.9 4.0 2.6 5.7 6.2 4.4 8.1 4.1 3.9 2.3 0.4 0.6 0.5 1.1 0.6 0.3 0.1 0.2 0.2 0.1 0.1 0.0 0.0 0.2
7.2 7.9 6.2 6.2 4.1 2.5 2.9 1.7 1.5 1.3 4.2 5.3 5.3 6.0 7.6 7.5 6.6 4.6 5.8 9.5 9.0 4.6 4.4 8.5 3.4 2.4 1.6 1.3 1.5 0.3 0.6 0.1 0.2 0.2 0.3 0.1 0.0 0.0
4.8 3.2 2.0 1.8 3.3 2.4 4.3 4.3 2.6 2.7 3.4 5.6 8.4 8.4 9.0 9.5 7.8 8.3 5.8 5.9 10.5 10.2 5.7 11.2 9.5 13.3 8.3 8.7 2.1 1.5 1.9 0.6 0.9 1.0 0.3 0.3 0.3 0.0
2.6 2.2 1.0 1.0 1.0 1.3 1.1 1.0 1.0 1.3 1.0 1.8 3.0 3.1 4.6 3.4 5.5 8.0 16.3 17.3 17.7 13.4 8.9 11.4 11.8 14.0 13.1 9.6 10.4 5.3 5.5 5.9 6.1 2.1 2.3 2.5 2.6 2.6
3.1 2.3 2.1 1.2 1.8 1.8 2.5 2.0 2.2 1.4 1.6 1.5 1.4 0.7 1.6 1.4 1.4 1.9 4.8 11.2 13.5 16.3 12.6 15.4 14.0 15.3 24.7 20.5 17.7 13.3 11.9 12.1 10.7 9.0 6.1 5.4 4.0 3.5
2.9 3.5 2.9 5.4 4.7 2.8 1.5 1.7 2.5 1.9 1.8 1.3 1.0 1.9 1.3 1.4 1.4 0.5 1.6 3.6 7.7 6.7 7.2 14.6 21.8 20.2 26.1 23.9 17.0 14.0 11.3 12.5 13.0 9.1 6.9 6.2 4.7 3.9
11.6 8.9 8.9 6.6 6.9 4.8 5.2 6.2 4.5 5.6 5.2 3.7 5.3 7.2 10.5 7.7 9.4 7.2 8.6 9.0 8.8 11.1 12.3 11.6 18.2 15.7 16.9 17.1 14.3 10.9 9.4 8.3 7.5 9.3 11.3 7.0 6.6 9.3
13.3 12.1 13.6 11.2 11.8 11.6 13.6 13.6 12.7 13.2 14.1 17.6 24.9 24.9 23.6 21.4 19.8 16.8 14.3 13.1 13.6 10.6 11.9 12.0 11.1 11.8 11.9 14.3 11.9 9.7 12.1 9.2 6.2 5.9 8.0 9.1 10.3 10.0
9.3 8.8 10.4 12.8 10.3 13.8 16.1 13.3 16.3 25.2 28.0 31.3 30.7 31.0 27.5 25.8 24.6 21.0 20.4 20.2 20.6 20.1 16.6 14.5 13.8 15.3 18.9 16.7 15.8 15.7 12.8 13.6 10.0 9.6 10.9 12.6 13.5 12.6
10.3 17.6 24.7 20.2 21.6 22.7 23.9 24.4 24.3 24.7 26.4 25.5 25.1 24.2 22.8 20.7 19.6 15.9 15.1 13.7 16.0 13.5 13.8 14.3 12.1 11.4 10.5 12.2 16.5 13.7 13.3 12.6 11.0 12.8 11.8 15.3 14.3 13.3
20.5 23.1 23.9 23.2 21.5 21.0 21.1 20.5 18.9 17.5 16.1 14.3 14.0 13.1 14.0 12.8 11.0 8.7 7.8 9.1 9.1 7.5 7.0 7.2 8.8 10.6 11.0 9.3 7.0 10.3 9.2 8.7 8.5 8.2 8.4 12.9 14.2 15.0
17.0 14.1 16.4 16.1 14.4 12.3 11.1 10.4 12.9 11.4 7.1 8.2 8.7 7.8 6.1 5.9 7.1 5.8 5.2 4.6 5.6 4.3 3.3 4.1 5.2 6.9 9.3 9.5 6.2 4.1 7.0 5.4 5.9 6.7 5.2 6.6 10.6 10.7
9.7 9.0 9.5 8.1 7.4 7.4 6.9 7.3 7.7 6.5 6.1 4.5 4.9 4.5 5.1 5.6 5.2 4.9 4.4 5.3 4.4 4.2 3.8 2.4 1.8 2.8 7.2 10.8 9.8 3.7 3.0 7.8 4.9 4.4 4.6 5.5 5.0 6.1
7.2 6.7 6.2 6.0 6.9 7.0 6.1 5.9 7.6 8.3 5.5 8.4 6.5 7.6 8.2 8.4 6.7 4.6 6.1 6.0 6.7 5.6 5.2 2.8 1.2 1.9 3.1 5.1 10.0 4.6 2.8 2.2 2.1 2.4 4.3 6.4 5.2 6.4
7.0 6.7 5.3 5.6 4.8 5.2 5.9 5.6 5.7 6.5 7.3 7.7 6.2 5.3 6.0 5.6 6.6 4.8 4.7 5.3 4.0 3.5 2.6 2.1 1.9 3.0 4.8 5.0 5.9 5.0 2.9 4.7 2.7 1.7 2.5 4.1 8.8 12.4
6.6 5.4 5.5 4.9 4.2 4.5 4.8 5.1 4.5 4.1 4.7 6.5 5.1 4.4 5.6 6.5 4.7 4.7 4.6 4.3 4.6 4.1 3.8 5.1 3.8 3.0 3.1 3.0 5.1 6.3 3.9 5.3 4.4 6.2 6.1 3.5 3.6 2.4

GFSNE_prec_kuchsnow_282.txt.gz
Snowfall_Accumulation
0.0 0.1 0.0 0.0 0.0 0.1 0.1 0.3 3.2 4.4 0.4 0.0 0.0 0.0 0.0 0.0 0.0 0.0 0.0 0.0 0.0 0.0 0.0 0.0 0.0 0.0 0.0 0.0 0.0 0.0 0.0 0.0 0.0 0.0 0.0 0.0 0.0 0.0
0.0 0.0 0.0 0.0 0.0 0.0 0.0 0.1 0.4 1.4 1.4 0.0 0.0 0.0 0.0 0.0 0.0 0.0 0.0 0.0 0.0 0.0 0.0 0.0 0.0 0.0 0.0 0.0 0.0 0.0 0.0 0.0 0.0 0.0 0.0 0.0 0.0 0.0
0.2 0.3 0.2 0.0 0.1 0.0 0.0 0.1 0.1 0.3 0.5 0.0 0.0 0.0 0.0 0.0 0.0 0.0 0.0 0.0 0.0 0.0 0.0 0.0 0.0 0.0 0.0 0.0 0.0 0.0 0.0 0.0 0.0 0.0 0.0 0.0 0.0 0.0
0.6 0.9 1.5 0.8 1.1 0.3 0.2 0.1 0.2 0.2 0.4 0.1 0.4 0.2 0.0 0.0 0.0 0.0 0.0 0.0 0.0 0.0 0.0 0.0 0.1 0.0 0.0 0.0 0.0 0.0 0.1 0.0 0.0 0.0 0.0 0.0 0.0 0.0
3.7 2.6 2.4 1.8 3.6 3.1 2.0 1.1 0.3 0.6 0.9 0.2 0.2 0.0 0.5 0.2 0.1 0.4 0.2 0.1 0.0 0.0 0.0 0.0 0.0 0.0 0.0 0.0 0.0 0.0 0.0 0.1 0.0 0.1 0.1 0.0 0.0 0.0
2.4 2.6 2.9 1.8 4.6 4.8 4.6 5.3 4.0 2.4 1.6 1.6 0.5 0.7 0.8 0.9 1.1 1.1 0.7 0.6 0.4 0.2 0.1 0.0 0.1 0.0 0.0 0.0 0.1 0.0 0.0 0.0 0.1 0.1 0.1 0.1 0.0 0.0
0.5 0.5 0.7 0.5 1.0 2.1 3.5 4.6 3.1 5.4 4.9 3.9 2.4 1.0 2.1 1.1 2.9 3.8 2.6 2.2 1.0 1.5 0.4 0.4 0.0 0.0 0.4 0.2 0.0 0.1 0.0 0.1 0.1 0.1 0.1 0.1 0.0 0.0
5.8 3.4 1.7 0.3 2.0 0.6 0.7 1.9 3.3 5.8 5.9 5.5 6.4 6.4 4.9 4.0 2.6 5.7 6.2 4.4 8.1 4.1 3.9 2.3 0.4 0.6 0.5 1.1 0.6 0.3 0.1 0.2 0.2 0.1 0.1 0.0 0.0 0.2
7.3 8.0 6.2 6.2 4.1 2.5 2.9 1.7 1.6 1.3 4.2 5.3 5.3 6.0 7.6 7.5 6.6 4.6 5.8 9.5 9.0 4.6 4.4 8.5 3.4 2.4 1.6 1.3 1.5 0.3 0.6 0.1 0.2 0.2 0.3 0.1 0.0 0.0
4.8 3.3 2.0 1.8 3.4 2.4 4.3 4.4 2.6 2.7 3.4 5.6 8.4 8.4 9.0 9.5 7.8 8.3 5.8 5.9 10.5 10.2 5.7 11.2 9.5 13.3 8.3 8.7 2.1 1.5 1.9 0.6 0.9 1.0 0.3 0.3 0.3 0.0
2.6 2.2 1.1 1.1 1.0 1.3 1.1 1.0 1.1 1.4 1.0 1.8 3.0 3.1 4.6 3.4 5.5 8.0 16.3 17.3 17.7 13.4 8.9 11.4 11.8 14.0 13.1 9.6 10.4 5.3 5.5 5.9 6.1 2.1 2.3 2.5 2.6 2.6
3.1 2.3 2.1 1.2 1.8 1.9 2.5 2.0 2.2 1.7 1.8 1.5 1.4 0.7 1.6 1.4 1.4 1.9 4.8 11.2 13.5 16.3 12.6 15.4 14.0 15.3 24.7 20.5 17.7 13.3 11.9 12.1 10.7 9.0 6.1 5.4 4.0 3.5
2.9 3.5 2.9 5.4 4.7 2.8 1.5 1.8 2.9 2.1 2.0 1.4 1.0 1.9 1.3 1.4 1.4 0.5 1.6 3.6 7.7 6.7 7.2 14.6 21.8 20.2 26.1 23.9 17.0 14.0 11.3 12.5 13.0 9.1 6.9 6.2 4.7 3.9
11.6 8.9 8.9 6.6 6.9 4.8 5.2 6.2 4.5 5.6 5.2 3.8 5.5 7.2 10.5 7.7 9.4 7.2 8.6 9.0 8.8 11.1 12.3 11.6 18.2 15.7 16.9 17.1 14.3 10.9 9.4 8.3 7.5 9.3 11.3 7.0 6.6 9.3
13.3 12.1 13.6 11.2 11.8 11.6 13.6 13.6 12.7 13.2 14.1 17.6 25.0 25.3 24.2 21.7 19.8 16.8 14.3 13.1 13.6 10.6 11.9 12.0 11.1 11.8 11.9 14.3 11.9 9.7 12.1 9.2 6.2 5.9 8.0 9.1 10.3 10.0
9.3 8.8 10.4 12.8 10.3 13.8 16.1 13.3 16.3 25.2 28.1 31.4 30.8 31.2 27.5 25.9 24.9 21.1 20.4 20.2 20.6 20.1 16.6 14.5 13.8 15.3 18.9 16.7 15.8 15.7 12.8 13.6 10.0 9.6 10.9 12.6 13.5 12.6
10.3 17.6 24.7 20.2 21.6 22.7 23.9 24.4 24.3 24.7 26.4 25.5 25.1 24.2 22.8 20.7 19.6 16.1 15.3 13.7 16.0 13.5 13.8 14.3 12.1 11.4 10.5 12.2 16.5 13.7 13.3 12.6 11.0 12.8 11.8 15.3 14.3 13.3
20.5 23.1 23.9 23.2 21.5 21.0 21.1 20.5 18.9 17.5 16.1 14.3 14.0 13.1 14.0 12.9 11.0 8.7 7.8 9.3 9.3 7.8 7.3 7.2 8.8 10.6 11.0 9.3 7.0 10.3 9.2 8.7 8.5 8.2 8.4 12.9 14.2 15.0
17.0 14.1 16.4 16.1 14.4 12.3 11.1 10.4 12.9 11.4 7.1 8.2 8.7 7.8 6.1 5.9 7.1 5.8 5.2 4.6 5.6 4.3 3.3 4.2 5.2 6.9 9.3 9.5 6.2 4.1 7.0 5.4 5.9 6.7 5.2 6.6 10.6 10.7
9.7 9.0 9.5 8.1 7.4 7.4 6.9 7.3 7.7 6.5 6.1 4.5 4.9 4.5 5.2 5.6 5.2 4.9 4.4 5.3 4.4 4.2 3.8 2.4 1.8 2.9 7.3 10.8 9.8 3.7 3.0 7.8 4.9 4.4 4.6 5.5 5.0 6.1
7.2 6.7 6.2 6.0 6.9 7.0 6.1 5.9 7.6 8.3 5.5 8.4 6.5 7.6 8.3 8.5 6.8 4.6 6.1 6.0 6.7 5.6 5.2 2.9 1.2 2.2 3.1 5.1 10.0 4.7 2.8 2.2 2.1 2.4 4.3 6.4 5.2 6.4
7.0 6.7 5.3 5.6 4.8 5.2 5.9 5.6 5.7 6.5 7.3 7.7 6.2 5.3 6.1 5.7 6.6 4.9 4.7 5.3 4.0 3.5 2.6 2.1 1.9 3.0 4.8 5.1 6.1 5.2 2.9 4.8 2.7 1.7 2.5 4.1 8.8 12.4
6.6 5.4 5.5 4.9 4.2 4.5 4.8 5.1 4.5 4.1 4.7 6.5 5.1 4.4 5.6 6.5 4.8 4.8 4.6 4.3 4.6 4.1 3.8 5.1 3.8 3.0 3.1 3.1 5.1 6.3 4.0 5.3 4.4 6.3 6.1 3.5 3.6 2.4